[[{"header":{"parameterUnit":"m.s-1","parameterCategory":1,"la1":30.2991,"la2":30.254,"lo1":-89.0895,"lo2":-89.0444,"dy":0.0017,"dx":0.0017,"nx":28,"ny":28,"refTime":"2024-05-25T03:00:00:Z","depth":0,"parameterNumber":2,"parameterNumberName":"U-component_of_WINDS"},"data":[0,0,0,0,0,0,0,0,0,0,0,0,0,0,0,0,0,0,0,0,0,0,0,0,0,0,0,0,0,0,0,0,0,0,0,0,0,0,0,0,0,0,0,0,0,0,0,0,0,0,0,0,0,0,0,0,0,0,0.8996,0.8996,0,0.898,0.898,0.8979,0.8944,0.8943,0.8942,0.8941,0.8925,0.8925,0.8925,0,0,0,0,0,0,0,0,0,0,0,0,0,0.8993,0.8994,0.8996,0.8996,0.8996,0.898,0.898,0.8979,0.8944,0.8943,0.8942,0.8941,0.8925,0.8925,0.8925,0,0,0,0,0,0,0,0,0,0,0,0,0,0.8988,0.8994,0.8996,0.8976,0.8974,0.898,0.898,0.8979,0.8944,0.8943,0.8942,0.8941,0.8925,0.8925,0.8925,0.895,0,0,0.8926,0.8927,0,0,0,0,0,0,0,0,0.8988,0.8988,0.8979,0.8977,0.8975,0.8963,0.8973,0.8969,0.8944,0.8955,0.8941,0.894,0.8938,0.8937,0.8937,0.8949,0.8948,0.8926,0.8927,0.8927,0.8927,0,0,0,0,0,0,0,0.8989,0.8988,0.899,0.8979,0.8976,0.8967,0.8965,0.8972,0.8953,0.8954,0.8952,0.895,0.8937,0.8937,0.8936,0.8948,0.8926,0.8927,0.8927,0.8927,0.8976,0.8977,0,0,0,0,0,0,0.8992,0.8989,0.899,0.8989,0.8979,0.8968,0.8966,0.8968,0.8953,0.895,0.8951,0.8949,0.8937,0.8936,0.8935,0.8961,0.8927,0.8927,0.8927,0.8975,0.8976,0.8977,0,0,0,0,0,0,0.8992,0.8993,0.8991,0.8988,0.8987,0.8969,0.8972,0.8968,0.8967,0.8951,0.8947,0.8954,0.8936,0.8935,0.8946,0.896,0.8927,0.8928,0.8974,0.8975,0.8977,0.9013,0,0,0,0,0,0,0.8992,0.8993,0.9003,0.8989,0.8988,0.9002,0.8973,0.8968,0.8968,0.8965,0.8953,0.895,0.8935,0.8945,0.8946,0.896,0.8928,0.8972,0.8974,0.8976,0.9011,0.9016,0.902,0,0,0,0,0,0.8992,0.9014,0.9003,0.9004,0.8999,0.9003,0.9002,0.8985,0.897,0.8978,0.8967,0.895,0.8958,0.8947,0.8947,0.8961,0.8971,0.8974,0.8976,0.9008,0.9015,0.902,0,0,0,0,0,0,0.903,0.9012,0.9,0.9018,0.9012,0.8997,0.9008,0.8992,0.8991,0.8988,0.8966,0.8963,0.8977,0.897,0.8958,0.8982,0.8962,0.8965,0.8986,0.8992,0.8997,0.8998,0.8928,0,0,0,0,0,0.9041,0.9046,0.9029,0.9047,0.9044,0.9027,0.9028,0.9014,0.9008,0.9005,0.8995,0.8989,0.8989,0.8991,0.8991,0.901,0.9005,0.9019,0.9024,0.9028,0.903,0.9037,0.9043,0.8985,0.8985,0.8985,0,0,0.9063,0.9053,0.9058,0.9054,0.9048,0.9052,0.9025,0.9031,0.9034,0.9006,0.9015,0.9007,0.8999,0.9013,0.9019,0.9008,0.9045,0.9031,0.9035,0.9034,0.904,0.9046,0.905,0.8987,0.8987,0.8986,0,0,0.9104,0.9098,0.9111,0.9105,0.9096,0.9084,0.9087,0.9073,0.9067,0.9075,0.9053,0.9056,0.9059,0.9053,0.905,0.9087,0.907,0.9088,0.9113,0.912,0.9124,0.9128,0.9139,0.9143,0.909,0.909,0.909,0,0.9132,0.9138,0.9119,0.9126,0.9124,0.9098,0.911,0.9105,0.9097,0.9096,0.9084,0.9085,0.9078,0.9089,0.9097,0.9097,0.9098,0.9089,0.9125,0.9129,0.9132,0.9142,0.9147,0.9092,0.9092,0.9092,0.9092,0,0.9172,0.9176,0.9188,0.9179,0.9178,0.9188,0.9169,0.9171,0.9157,0.9146,0.9153,0.9144,0.914,0.9142,0.913,0.9151,0.9144,0.9129,0.9108,0.914,0.9149,0.9153,0.9095,0.9094,0.9094,0.9093,0,0,0.9238,0.9217,0.9221,0.9216,0.9203,0.9206,0.9213,0.9209,0.921,0.9205,0.9209,0.9211,0.9196,0.9193,0.918,0.9186,0.9213,0.917,0.9169,0.9176,0.9233,0.9243,0.9248,0.9202,0.9202,0.9203,0.9233,0,0.9275,0.9286,0.9268,0.9283,0.9286,0.926,0.9266,0.9259,0.9248,0.9248,0.9236,0.9237,0.9218,0.9216,0.9221,0.9208,0.9223,0.9206,0.9204,0.9205,0.9206,0.9253,0.9265,0.9294,0.9237,0.9237,0.9238,0,0.932,0.9315,0.9331,0.9314,0.9315,0.9321,0.9314,0.9315,0.9305,0.9296,0.9292,0.9275,0.928,0.926,0.9265,0.9254,0.9252,0.9246,0.9246,0.9244,0.9222,0.9251,0.9303,0.9306,0.9244,0.9243,0.9243,0,0.9363,0.9361,0.9369,0.9366,0.9348,0.9352,0.9345,0.9334,0.9332,0.9326,0.9324,0.932,0.9317,0.9313,0.9295,0.9283,0.9302,0.9281,0.9293,0.9294,0.9298,0.9298,0.9348,0.93,0.9299,0.9299,0.9299,0,0.9406,0.9416,0.9388,0.9393,0.9403,0.9382,0.9391,0.9381,0.9371,0.9373,0.9351,0.9353,0.933,0.9329,0.9315,0.932,0.9319,0.9312,0.9307,0.9313,0.9313,0.931,0.9307,0.93,0.93,0.93,0.93,0,0.9456,0.9438,0.9445,0.9427,0.9422,0.943,0.9414,0.9417,0.9404,0.9407,0.9406,0.9386,0.9383,0.9365,0.9359,0.9349,0.9359,0.9352,0.9362,0.9359,0.9372,0.937,0.9421,0.9426,0.9376,0.9376,0.9377,0,0.9483,0.949,0.9472,0.9471,0.9465,0.9464,0.9461,0.944,0.9438,0.9426,0.943,0.9426,0.9421,0.9418,0.9402,0.9397,0.9388,0.9406,0.9387,0.9391,0.9386,0.9385,0.9385,0.941,0.9411,0.9411,0.9412,0,0.9533,0.9524,0.9521,0.9514,0.9511,0.9505,0.9498,0.9498,0.9475,0.9473,0.947,0.9466,0.9459,0.9454,0.9445,0.9437,0.942,0.9418,0.942,0.9425,0.943,0.9425,0.9371,0.9417,0.9416,0.9416,0.9415,0.9415,0.9571,0.9575,0.9562,0.9559,0.9551,0.9544,0.9545,0.9532,0.9529,0.9521,0.9508,0.9506,0.9494,0.948,0.9473,0.9471,0.9461,0.9465,0.9466,0.9467,0.9468,0.9431,0.9469,0.9469,0.9469,0.9469,0.9469,0,0.9618,0.9608,0.9605,0.9595,0.9592,0.9576,0.9566,0.9565,0.9563,0.9553,0.9548,0.9543,0.9538,0.9522,0.9514,0.9515,0.9507,0.9514,0.9513,0.9511,0.9479,0.9476,0.9521,0.9521,0.9521,0.9521,0.9521,0.9521,0.9642,0.9647,0.9635,0.9635,0.9625,0.9622,0.9618,0.9611,0.9602,0.9598,0.9593,0.9582,0.9569,0.956,0.9554,0.9549,0.9547,0.9556,0.9549,0.9518,0.9513,0.9509,0.9506,0.9556,0.9556,0.9581,0.9581,0.9581]},{"header":{"parameterUnit":"m.s-1","parameterCategory":1,"la1":30.2991,"la2":30.254,"lo1":-89.0895,"lo2":-89.0444,"dy":0.0017,"dx":0.0017,"nx":28,"ny":28,"refTime":"2024-05-25T03:00:00:Z","depth":0,"parameterNumber":3,"parameterNumberName":"V-component_of_WINDS"},"data":[0,0,0,0,0,0,0,0,0,0,0,0,0,0,0,0,0,0,0,0,0,0,0,0,0,0,0,0,0,0,0,0,0,0,0,0,0,0,0,0,0,0,0,0,0,0,0,0,0,0,0,0,0,0,0,0,0,0,6.0069,6.007,0,6.014,6.0141,6.0141,6.0076,6.0074,6.0071,6.0069,6.0134,6.0138,6.0142,0,0,0,0,0,0,0,0,0,0,0,0,0,5.9869,5.9873,6.0069,6.007,6.0071,6.014,6.0141,6.0142,6.0077,6.0074,6.007,6.0067,6.0133,6.0138,6.0143,0,0,0,0,0,0,0,0,0,0,0,0,0,5.995,5.9875,6.0069,6.0047,6.0046,6.014,6.0141,6.0142,6.0077,6.0074,6.007,6.0066,6.0131,6.0137,6.0143,6.0261,0,0,6.0163,6.0165,0,0,0,0,0,0,0,0,5.9945,5.9957,6.0049,6.0049,6.0047,6.0095,6.0094,6.0181,6.0078,6.0065,6.0069,6.0064,6.0124,6.0131,6.0152,6.0264,6.0266,6.0163,6.0167,6.017,6.0171,0,0,0,0,0,0,0,5.994,5.9953,6.0097,6.0051,6.0049,6.0031,6.0038,6.011,6.0115,6.0066,6.0061,6.0071,6.0123,6.0146,6.0153,6.0267,6.0163,6.0169,6.0172,6.0175,6.0476,6.048,0,0,0,0,0,0,5.9937,5.9949,6.0094,6.0099,5.9986,6.0038,6.0045,6.0084,6.0115,6.0116,6.0074,6.0068,6.0138,6.0146,6.0155,6.0293,6.017,6.0176,6.0179,6.0471,6.0477,6.0481,0,0,0,0,0,0,5.9933,5.9951,6.0092,6.0023,6.0039,6.0045,6.0089,6.0087,6.0111,6.0121,6.0121,6.0098,6.0135,6.0147,6.0235,6.0294,6.0178,6.0184,6.0466,6.0473,6.0479,6.057,0,0,0,0,0,0,5.9928,5.995,5.9996,6.0025,6.0043,6.0173,6.0092,6.0091,6.0123,6.0115,6.0143,6.0144,6.0133,6.0226,6.0241,6.0301,6.0189,6.0461,6.0469,6.0477,6.0561,6.0578,6.0593,0,0,0,0,0,5.9921,6.0018,5.9999,6.0017,6.0102,6.0176,6.0186,6.0173,6.0128,6.0173,6.0179,6.0143,6.0286,6.0235,6.0252,6.0315,6.0457,6.0467,6.0476,6.0554,6.0575,6.0593,0,0,0,0,0,0,5.9994,6.0021,6.0001,6.011,6.0142,6.0165,6.0222,6.0196,6.0239,6.023,6.0209,6.0216,6.0309,6.0321,6.0264,6.0428,6.0364,6.0377,6.0417,6.0437,6.0453,6.0447,6.0194,0,0,0,0,0,6.0024,6.0084,6.0103,6.0198,6.0215,6.0216,6.0248,6.0235,6.0266,6.0278,6.0291,6.032,6.0371,6.0405,6.0452,6.0563,6.0567,6.0614,6.063,6.0643,6.0654,6.0711,6.0732,6.0512,6.0512,6.0512,0,0,6.0084,6.0106,6.0145,6.0213,6.0236,6.0297,6.0228,6.0295,6.0338,6.0287,6.0372,6.0382,6.0413,6.0513,6.0557,6.0525,6.0716,6.0655,6.0665,6.0669,6.0723,6.0744,6.0762,6.0519,6.0518,6.0517,0,0,6.0224,6.0249,6.0329,6.0354,6.039,6.039,6.041,6.0437,6.0443,6.0528,6.049,6.0541,6.063,6.0653,6.0676,6.0826,6.0793,6.0841,6.0923,6.0979,6.0996,6.1012,6.1063,6.1082,6.0853,6.0853,6.0853,0,6.0294,6.0386,6.0373,6.0444,6.0473,6.0433,6.0512,6.0536,6.0585,6.0605,6.057,6.068,6.0698,6.0801,6.0838,6.0859,6.0878,6.0837,6.0996,6.1011,6.1024,6.1073,6.1092,6.0859,6.0858,6.0857,6.0857,0,6.0469,6.0533,6.0594,6.0645,6.0681,6.0756,6.0752,6.079,6.0774,6.0777,6.0863,6.0883,6.0933,6.0957,6.0942,6.1058,6.1037,6.0999,6.0933,6.1051,6.1096,6.1115,6.0866,6.0864,6.0863,6.0861,0,0,6.0657,6.07,6.0722,6.0744,6.0781,6.0829,6.0901,6.0952,6.0984,6.102,6.1077,6.1154,6.1118,6.1145,6.1131,6.1181,6.1295,6.1136,6.1136,6.1163,6.1422,6.145,6.1472,6.1275,6.1278,6.1281,6.1419,0,6.0797,6.0925,6.0915,6.1034,6.1092,6.1053,6.1115,6.1143,6.1148,6.1195,6.1199,6.1253,6.1203,6.1219,6.1266,6.1271,6.1347,6.1261,6.1325,6.1328,6.1317,6.1496,6.1525,6.1655,6.1437,6.144,6.1442,0,6.0978,6.1022,6.1147,6.1175,6.1198,6.1255,6.13,6.1347,6.1377,6.1377,6.1407,6.1385,6.1454,6.1388,6.1482,6.1424,6.145,6.1456,6.1461,6.1464,6.1391,6.1503,6.1696,6.1715,6.147,6.1468,6.1466,0,6.11,6.119,6.1277,6.1297,6.1331,6.1371,6.1387,6.1413,6.1444,6.1484,6.1503,6.1549,6.1574,6.1609,6.1599,6.1552,6.1694,6.1628,6.1693,6.1693,6.1723,6.1721,6.1922,6.1743,6.1743,6.1742,6.1742,0,6.1257,6.1335,6.1332,6.1385,6.147,6.1457,6.154,6.1551,6.1575,6.1627,6.1596,6.1645,6.163,6.1677,6.1669,6.1747,6.1759,6.1758,6.1755,6.176,6.176,6.1775,6.1765,6.1747,6.1746,6.1745,6.1744,0,6.1407,6.1409,6.15,6.1526,6.1534,6.1595,6.1616,6.1664,6.1667,6.1733,6.1747,6.175,6.1805,6.1799,6.1859,6.1853,6.1949,6.1936,6.194,6.1936,6.2001,6.1995,6.2217,6.2244,6.205,6.2052,6.2053,0,6.1507,6.1566,6.1599,6.1633,6.1652,6.1707,6.1739,6.1728,6.1762,6.18,6.1843,6.1895,6.1936,6.2024,6.203,6.2075,6.2061,6.2136,6.2068,6.2071,6.206,6.2056,6.2061,6.2149,6.2151,6.2153,6.2155,0,6.1682,6.168,6.1729,6.1778,6.1818,6.1855,6.1889,6.1918,6.191,6.1949,6.2006,6.2038,6.21,6.2151,6.2194,6.2207,6.2179,6.2177,6.2194,6.2199,6.2198,6.2197,6.1975,6.2171,6.2169,6.2168,6.2167,6.2167,6.1808,6.1859,6.189,6.1944,6.1969,6.2002,6.2048,6.2057,6.2105,6.2156,6.2146,6.2209,6.2235,6.2291,6.2308,6.2355,6.2328,6.2353,6.2359,6.2365,6.2372,6.2192,6.2363,6.2363,6.2362,6.2362,6.2361,0,6.198,6.1998,6.205,6.2099,6.2142,6.2115,6.215,6.2187,6.2244,6.2272,6.2313,6.2377,6.2426,6.2437,6.2483,6.2519,6.2507,6.2531,6.2527,6.253,6.2395,6.2375,6.254,6.254,6.254,6.254,6.254,6.254,6.2075,6.2158,6.2159,6.2253,6.227,6.2334,6.2356,6.2385,6.2407,6.2481,6.2523,6.253,6.255,6.2598,6.2641,6.2642,6.2659,6.2689,6.2685,6.2558,6.254,6.2523,6.2504,6.2693,6.2693,6.2816,6.2817,6.2818]}]]